1274054428370,79.7612
1274054488370,79.8769
1274054548370,79.6591
1274054608370,79.6564
1274054668370,79.6328
1274054728370,79.6577
1274054788370,79.6989
1274054848370,79.6741
1274054908370,79.7352
1274054968370,79.5376
1274055028370,79.5553
1274055088370,79.6107
1274055148370,79.5256
1274055208370,79.6517
1274055268370,79.6526
1274055328370,79.6632
1274055388370,79.5367
1274055448370,79.5346
1274055508370,79.6713
1274055568370,79.6189
1274055628370,79.6479
1274055688370,79.7987
1274055748370,79.6918
1274055808370,79.4896
1274055868370,79.6868
1274055928370,79.5847
1274055988370,79.7566
1274056048370,79.5736
1274056108370,79.4691
1274056168370,79.6122
1274056228370,79.5733
1274056288370,79.5194
1274056348370,79.5308
1274056408370,79.5989
1274056468370,79.4869
1274056528370,79.5064
1274056588370,79.6123
1274056648370,79.5239
1274056708370,79.4754
1274056768370,79.7385
1274056828370,79.5554
1274056888370,79.5964
1274056948370,79.6208
1274057008370,79.4875
1274057068370,79.6165
1274057128370,79.5702
1274057188370,79.4212
1274057248370,79.4949
1274057308370,79.5580
1274057368370,79.5931
1274057428370,79.5390
1274057488370,79.4750
1274057548370,79.5287
1274057608370,79.7449
1274057668370,79.5134
1274057728370,79.5088
1274057788370,79.5948
1274057848370,79.5633
1274057908370,79.4672
1274057968370,79.6970
1274058028380,79.4019
1274058088380,79.4838
1274058628380,79.6137
1274058688380,79.5237
1274058748380,79.6666
1274058808380,79.5407
1274058868380,79.7780
1274058928380,79.6201
1274058988380,79.6085
1274059048380,79.6728
1274059108380,79.4336
1274059168380,79.6962
1274059228380,79.7166
1274059288380,79.6475
1274059348380,79.6353
1274059408380,79.4031
1274059468380,79.7568
1274059528380,79.5438
1274059588380,79.5501
1274059648380,79.6330
1274059708380,79.5858
1274059768380,79.3389
1274059828380,79.4543
1274059888380,79.5624
1274059948380,79.5737
1274060008380,79.5557
1274060068380,79.6860
1274060128380,79.7417
1274060188380,79.4416
1274060248380,79.6608
1274060308380,79.6970
1274060368380,79.5795
1274060428380,79.6725
1274060488380,79.4667
1274060548380,79.5956
1274060608380,79.6330
1274060668380,79.6867
1274060728380,79.7217
1274060788380,79.4559
1274060848380,79.5855
1274060908380,79.5152
1274060968380,79.7096
1274061028380,79.6977
1274061088380,79.6317
1274061148380,79.5912
1274061208380,79.7167
1274061268380,79.5380
1274061328380,79.4959
1274061388380,79.5942
1274061448380,79.6515
1274061508380,79.6191
1274061568380,79.7419
1274061628390,79.4169
1274061688390,79.5563
1274061748390,79.5559
1274061808390,79.5993
1274061868390,79.5711
1274061928390,79.6412
1274061988390,79.5961
1274062048390,79.6501
1274062108390,79.7564
1274062168390,79.7992
1274062228390,79.5318
1274062288390,79.7399
1274062348390,79.7671
1274062408390,79.6546
1274062468390,79.8513
1274062528390,79.5771
1274062588390,79.6302
1274062648390,79.6464
1274062708390,79.6267
1274062768390,79.7735
1274062828390,79.6733
1274062888390,79.5965
1274062948390,79.5765
1274063008390,79.6131
1274063068390,79.8326
1274063128390,79.5852
1274063188390,79.5018
1274063248390,79.5427
1274063308390,79.7779
1274063368390,79.5152
1274063428390,79.8566
1274063488390,79.5265
1274063548390,79.5727
1274063608390,79.6564
1274063668390,79.3355
1274063728390,79.8073
1274063788390,79.4737
1274063848390,79.3787
1274063908390,79.5694
1274063968390,79.7462
1274064028390,79.6364
1274064088390,79.5443
1274064148390,79.4699
1274064208390,79.6391
1274064268390,79.4429
1274064328390,79.4492
1274064388390,79.6132
1274064448390,79.5954
1274064508390,79.6097
1274064568390,79.5837
1274064628390,79.5397
1274064688390,79.7945
1274064748390,79.7665
1274064808390,79.6711
1274064868390,79.7650
1274064928390,79.6532
1274064988390,79.6252
1274065048390,79.6979
1274065108390,79.5284
1274065168390,79.6184
1274065228399,79.5988
1274065288399,79.5781
1274065348399,79.5552
1274065408399,79.5854
1274065468399,79.7802
1274065528399,79.6265
1274065588399,79.4601
1274065648399,79.6281
1274065708399,79.3849
1274065768399,79.5277
1274065828399,79.7427
1274065888399,79.5804
1274065948399,79.5944
1274066008399,79.7082
1274066068399,79.5441
1274066128399,79.4228
1274066188399,79.5422
1274066248399,79.6094
1274066308399,79.5323
1274066368399,79.7121
1274066428399,79.5585
1274066488399,79.6548
1274066548399,79.4285
1274066608399,79.5139
1274066668399,79.6790
1274066728399,79.6502
1274066788399,79.6937
1274066848399,79.5138
1274066908399,79.4890
1274066968399,79.6163
1274067028399,79.6309
1274067088399,79.6611
1274067148399,79.7428
1274067208399,79.6528
1274067268399,79.6353
1274067328399,79.5277
1274067388399,79.6348
1274067448399,79.4957
1274067508399,79.7976
1274067568399,79.6559
1274067628399,79.7468
1274067688399,79.7110
1274067748399,79.6347
1274067808399,79.6230
1274067868399,79.7364
1274067928399,79.7744
1274067988399,79.8640
1274068048399,79.7020
1274068108399,79.7700
1274068168399,79.7510
1274068228399,79.7832
1274068288399,79.8222
1274068348399,79.6204
1274068408399,79.6117
1274068468399,79.9069
1274068528399,79.6855
1274068588399,79.5919
1274068648399,79.7806
1274068708399,79.8126
1274068768399,79.8468
1274068828408,79.7817
1274068888408,79.6788
1274068948408,79.7048
1274069008408,79.6649
1274069068408,79.8078
1274069128408,79.6170
1274069188408,79.9502
1274069248408,79.6781
1274069308408,79.6691
1274069368408,79.7164
1274069428408,79.7284
1274069488408,79.7594
1274069548408,79.6969
1274069608408,79.7555
1274069668408,79.7955
1274069728408,79.8093
1274069788408,79.6895
1274069848408,79.6234
1274069908408,79.7483
1274069968408,79.7547
1274070028408,79.7006
1274070088408,79.8149
1274070148408,79.7327
1274070208408,79.5085
1274070268408,79.5818
1274070328408,79.8459
1274070388408,79.7537
1274070448408,79.7985
1274070508408,79.7010
1274070568408,79.8110
1274070628408,79.7115
1274070688408,79.8033
1274070748408,79.7230
1274070808408,79.6415
1274070868408,79.6641
1274070928408,79.5269
1274070988408,79.5900
1274071048408,79.6643
1274071108408,79.6928
1274071168408,79.8047
1274071228408,79.7218
1274071288408,79.6545
1274071348408,79.7105
1274071408408,79.6276
1274071468408,79.9445
1274071528408,79.6624
1274071588408,79.6808
1274071648408,79.7425
1274071708408,79.7273
1274071768408,79.7527
1274071828408,79.7822
1274071888408,79.7132
1274071948408,79.8172
1274072008408,79.7250
1274072068408,79.7081
1274072128408,79.6558
1274072188408,79.8226
1274072248408,79.7488
1274072308408,79.7613
1274072368408,79.7514
1274072428417,79.7577
1274072488417,79.4857
1274072548417,79.8144
1274072608417,79.6417
1274072668417,79.6751
1274072728417,79.7024
1274072788417,79.6516
1274072848417,79.8267
1274072908417,79.8107
1274072968417,79.8752
1274073028417,79.7342
1274073088417,79.7790
1274073148417,79.8050
1274073208417,79.8591
1274073268417,79.6376
1274073328417,79.8828
1274073388417,79.7272
1274073448417,79.9383
1274073508417,79.5545
1274073568417,79.7701
1274073628417,80.0182
1274073688417,79.7916
1274073748417,79.7690
1274073808417,79.6360
1274073868417,79.8310
1274073928417,79.7409
1274073988417,79.8693
1274074048417,79.7938
1274074108417,79.8405
1274074168417,79.8099
1274074228417,79.7592
1274074288417,79.6138
1274074348417,79.7482
1274074408417,79.9521
1274074468417,79.7677
1274074528417,79.8959
1274074588417,79.6735
1274074648417,79.8302
1274074708417,79.7391
1274074768417,79.6198
1274074828417,79.6829
1274074888417,79.6392
1274074948417,80.0242
1274075008417,79.8855
1274075068417,79.6951
1274075128417,79.8533
1274075188417,79.8759
1274075248417,79.6513
1274075308417,79.7169
1274075368417,79.8675
1274075428417,79.6486
1274075488417,79.7989
1274075548417,79.6883
1274075608417,79.7728
1274075668417,79.5924
1274075728417,79.7292
1274075788417,79.5340
1274075848417,79.7575
1274075908417,79.7613
1274075968417,79.6085
1274076028426,79.7285
1274076088426,79.7838
1274076148426,79.6638
1274076208426,79.7168
1274076268426,79.7736
1274076328426,79.6329
1274076388426,79.6997
1274076448426,79.9905
1274076508426,79.6712
1274076568426,79.6803
1274076628426,79.8807
1274076688426,79.9126
1274076748426,79.8120
1274076808426,79.5720
1274076868426,79.7562
1274076928426,79.7731
1274076988426,79.6575
1274077048426,79.7607
1274077108426,79.8676
1274077168426,79.9328
1274077228426,80.0110
1274077288426,79.8812
1274077348426,79.8331
1274077408426,79.9780
1274077468426,80.0532
1274077528426,79.7785
1274077588426,79.6860
1274077648426,79.8090
1274077708426,79.9059
1274077768426,79.9842
1274077828426,79.9287
1274077888426,79.8337
1274077948426,79.7505
1274078008426,79.7904
1274078068426,79.7749
1274078128426,79.7493
1274078188426,79.6926
1274078248426,79.8804
1274078308426,79.7431
1274078368426,79.8990
1274078428426,79.8557
1274078488426,79.8104
1274078548426,79.8963
1274078608426,79.9281
1274078668426,79.8091
1274078728426,79.7093
1274078788426,79.8541
1274078848426,79.7081
1274078908426,79.9992
1274078968426,79.8602
1274079028426,79.7974
1274079088426,79.8737
1274079148426,79.9880
1274079208426,79.8347
1274079268426,79.9059
1274079328426,79.8961
1274079388426,79.9554
1274079448426,80.1791
1274079508426,79.7112
1274079568426,79.8996
1274079628435,79.9239
1274079688435,79.9310
1274079748435,80.0148
1274079808435,79.9472
1274079868435,80.0781
1274079928435,79.9623
1274079988435,80.0324
1274080048435,79.9761
1274080108435,79.9533
1274080168435,79.9913
1274080228435,80.0971
1274080288435,80.1630
1274080348435,79.9033
1274080408435,79.9743
1274080468435,80.0152
1274080528435,79.9055
1274080588435,79.9968
1274080648435,80.0845
1274080708435,80.1065
1274080768435,80.0402
1274080828435,80.0993
1274080888435,80.0666
1274080948435,80.1176
1274081008435,79.9674
1274081068435,80.1442
1274081128435,79.7679
1274081188435,80.0613
1274081248435,79.9652
1274081308435,80.1070
1274081368435,79.9689
1274081428435,80.0340
1274081488435,79.9537
1274081548435,79.9372
1274081608435,80.0082
1274081668435,79.9931
1274081728435,80.0396
1274081788435,79.9940
1274081848435,80.0521
1274081908435,79.9561
1274081968435,80.1654
1274082028435,79.9929
1274082088435,80.0089
1274082148435,80.0718
1274082208435,79.9796
1274082268435,80.2850
1274082328435,80.2662
1274082388435,80.0832
1274082448435,80.2303
1274082508435,80.1973
1274082568435,80.0052
1274082628435,79.9703
1274082688435,80.0371
1274082748435,79.9207
1274082808435,80.1068
1274082868435,80.0585
1274082928435,80.1146
1274082988435,80.1431
1274083048435,80.0700
1274083108435,80.0568
1274083168435,80.0131
1274083228444,79.9293
1274083288444,80.1092
1274083348444,80.1785
1274083408444,79.9673
1274083468444,80.1260
1274083528444,80.0062
1274083588444,80.3764
1274083648444,80.0739
1274083708444,80.0191
1274083768444,80.3474
1274083828444,80.1082
1274083888444,80.2405
1274083948444,80.2953
1274084008444,80.1927
1274084068444,80.1458
1274084128444,80.2427
1274084188444,80.1305
1274084248444,80.2304
1274084308444,80.2641
1274084368444,80.1110
1274084428444,80.0043
1274084488444,80.2520
1274084548444,80.2478
1274084608444,80.2520
1274084668444,80.2548
1274084728444,79.9341
1274084788444,80.3189
1274084848444,80.1638
1274084908444,80.2943
1274084968444,80.1734
1274085028444,80.1915
1274085088444,80.1058
1274085148444,80.1838
1274085208444,80.1907
1274085268444,80.2767
1274085328444,80.2142
1274085388444,80.1759
1274085448444,80.1973
1274085508444,80.2059
1274085568444,80.2072
1274085628444,80.1622
1274085688444,80.3008
1274085748444,80.1625
1274085808444,80.3195
1274085868444,80.1860
1274085928444,80.0865
1274085988444,80.2254
1274086048444,80.2263
1274086108444,80.1792
1274086168444,80.3651
1274086228444,80.1450
1274086288444,80.2649
1274086348444,80.2375
1274086408444,80.2059
1274086468444,80.2693
1274086528444,80.2651
1274086588444,80.2954
1274086648444,80.3129
1274086708444,80.3641
1274086768444,80.2726
1274086828453,80.2167
1274086888453,80.1914
1274086948453,80.3155
1274087008453,80.2330
1274087068453,80.1642
1274087128453,80.0594
1274087188453,80.2345
1274087248453,80.2022
1274087308453,81.0885
1274087368453,80.3624
1274087428453,80.1615
1274087488453,80.2896
1274087548453,80.1675
1274087608453,80.3450
1274087668453,80.0873
1274087728453,80.3378
1274087788453,80.2408
1274087848453,80.4181
1274087908453,80.1912
1274087968453,80.1672
1274088028453,80.0417
1274088088453,80.2158
1274088148453,80.1691
1274088208453,80.1723
1274088268453,80.0674
1274088328453,80.0872
1274088388453,80.1526
1274088448453,80.2795
1274088508453,80.1509
1274088568453,80.1742
1274088628453,80.2903
1274088688453,80.2340
1274088748453,80.0405
1274088808453,80.0027
1274088868453,80.1220
1274088928453,80.1293
1274088988453,80.0668
1274089048453,80.2125
1274089108453,80.1711
1274089168453,80.1502
1274089228453,80.1121
1274089288453,79.9172
1274089348453,79.9832
1274089408453,80.0530
1274089468453,80.0089
1274089528453,80.0574
1274089588453,79.9365
1274089648453,80.0524
1274089708453,79.9502
1274089768453,79.8975
1274089828453,80.2698
1274089888453,79.9486
1274089948453,80.0158
1274090008453,80.0141
1274090068453,80.0575
1274090128453,80.1426
1274090188453,80.0899
1274090248453,79.9999
1274090308453,79.9940
1274090368453,80.0786
1274090428462,79.9173
1274090488462,79.9523
1274090548462,79.9367
1274090608462,79.8698
1274090668462,80.0487
1274090728462,80.0336
1274090788462,79.6612
1274090848462,79.9987
1274090908462,79.9851
1274090968462,79.9838
1274091028462,79.9758
1274091088462,80.0951
1274091148462,80.0132
1274091208462,79.8521
1274091268462,80.1868
1274091328462,80.0322
1274091388462,79.7273
1274091448462,79.8413
1274091508462,80.0293
1274091568462,79.6943
1274091628462,79.9206
1274091688462,80.0225
1274091748462,79.8853
1274091808462,79.8119
1274091868462,79.9850
1274091928462,80.0929
1274091988462,79.9539
1274092048462,79.8419
1274092108462,79.9063
1274092168462,79.8639
1274092228462,80.1454
1274092288462,80.0207
1274092348462,79.9391
1274092408462,80.0344
1274092468462,79.9452
1274092528462,79.9405
1274092588462,79.7475
1274092648462,79.8220
1274092708462,80.0017
1274092768462,79.8526
1274092828462,79.7776
1274092888462,79.8377
1274092948462,79.9606
1274093008462,79.7606
1274093068462,79.9232
1274093128462,79.9181
1274093188462,79.7222
1274093248462,79.8935
1274093308462,79.7903
1274093368462,79.7996
1274093428462,79.8569
1274093488462,79.9385
1274093548462,79.8185
1274093608462,79.8552
1274093668462,79.7247
1274093728462,79.6542
1274093788462,79.7448
1274093848462,79.8029
1274093908462,79.8093
1274093968462,79.7625
1274094028471,79.8475
1274094088471,79.6327
1274094148471,79.8692
1274094208471,79.7990
1274094268471,79.9863
1274094328471,79.8799
1274094388471,79.8266
1274094448471,79.8491
1274094508471,79.7420
1274094568471,79.8259
1274094628471,79.7311
1274094688471,79.9666
1274094748471,79.8194
1274094808471,79.8017
1274094868471,79.8335
1274094928471,79.7860
1274094988471,79.9702
1274095048471,79.8224
1274095108471,79.9257
1274095168471,79.7481
1274095228471,79.7476
1274095288471,79.7721
1274095348471,80.1964
1274095408471,79.9127
1274095468471,80.1063
1274095528471,79.9023
1274095588471,79.7356
1274095648471,79.8855
1274095708471,79.8065
1274095768471,79.9598
1274095828471,79.7988
1274095888471,79.9946
1274095948471,79.9087
1274096008471,80.0762
1274096068471,79.8333
1274096128471,80.0573
1274096188471,79.9911
1274096248471,79.9660
1274096308471,79.9363
1274096368471,80.0890
1274096428471,79.9526
1274096488471,79.9993
1274096548471,80.1137
1274096608471,80.0988
1274096668471,80.0102
1274096728471,79.8423
1274096788471,80.1375
1274096848471,80.0736
1274096908471,80.1289
1274096968471,79.9874
1274097028471,80.1169
1274097088471,80.2419
1274097148471,80.1299
1274097208471,80.1711
1274097268471,80.1349
1274097328471,79.9688
1274097388471,80.1166
1274097448471,80.1328
1274097508471,80.0489
1274097568471,80.2083
1274097628479,80.0548
1274097688479,80.2103
1274097748479,80.2255
1274097808479,80.1522
1274097868479,80.2666
1274097928479,80.3921
1274097988479,80.1240
1274098048479,80.3445
1274098108479,80.2592
1274098168479,80.0783
1274098228479,80.3859
1274098288479,80.3381
1274098348479,80.1579
1274098408479,80.2913
1274098468479,80.2146
1274098528479,80.2599
1274098588479,80.4790
1274098648479,80.3646
1274098708479,80.2801
1274098768479,80.1731
1274098828479,80.3353
1274098888479,80.3952
1274098948479,80.2101
1274099008479,80.2400
1274099068479,80.2203
1274099128479,80.0854
1274099188479,80.3127
1274099248479,80.2496
1274099308479,80.4070
1274099368479,80.1919
1274099428479,80.3933
1274099488479,80.1937
1274099548479,80.2883
1274099608479,80.2038
1274099668479,80.3427
1274099728479,80.3494
1274099788479,80.2103
1274099848479,80.3381
1274099908479,80.3867
1274099968479,80.4598
1274100028479,80.2288
1274100088479,80.4240
1274100148479,80.3781
1274100208479,80.3664
1274100268479,80.3645
1274100328479,80.4266
1274100388479,80.5652
1274100448479,80.3268
1274100508479,80.3493
1274100568479,80.3717
1274100628479,80.4100
1274100688479,80.4294
1274100748479,80.4520
1274100808479,80.3212
1274100868479,80.4132
1274100928479,80.4500
1274100988479,80.4616
1274101048479,80.3303
1274101108479,80.2381
1274101168479,80.4401
1274101228488,80.4437
1274101288488,80.3369
1274101348488,80.3956
1274101408488,80.5126
1274101468488,80.3847
1274101528488,80.4894
1274101588488,80.3363
1274101648488,80.4863
1274101708488,80.3076
1274101768488,80.2839
1274101828488,80.4180
1274101888488,80.5059
1274101948488,80.3793
1274102008488,80.3348
1274102068488,80.4530
1274102128488,80.3853
1274102188488,80.4762
1274102248488,80.4066
1274102308488,80.4052
1274102368488,80.4288
1274102428488,80.2080
1274102488488,80.3116
1274102548488,80.3350
1274102608488,80.2719
1274102668488,80.2361
1274102728488,80.5071
1274102788488,80.4144
1274102848488,80.3033
1274102908488,80.1875
1274102968488,80.3814
1274103028488,80.4543
1274103088488,80.2538
1274103148488,80.4905
1274103208488,80.4459
1274103268488,80.5186
1274103328488,80.4151
1274103388488,80.2696
1274103448488,80.2452
1274103508488,80.1487
1274103568488,80.4975
1274103628488,80.6146
1274103688488,80.3186
1274103748488,80.2560
1274103808488,80.2539
1274103868488,80.2485
1274103928488,80.3563
1274103988488,80.1996
1274104048488,80.2471
1274104108488,80.2698
1274104168488,80.3762
1274104228488,80.3135
1274104288488,80.2784
1274104348488,80.4314
1274104408488,80.3652
1274104468488,80.2403
1274104528488,80.3120
1274104588488,80.2900
1274104648488,80.3181
1274104708488,80.2564
1274104768488,80.4204
1274104828497,80.1263
1274104888497,80.3344
1274104948497,80.2435
1274105008497,80.4453
1274105068497,80.1278
1274105128497,80.1804
1274105188497,80.0796
1274105248497,80.3586
1274105308497,80.3215
1274105368497,80.3153
1274105428497,80.3417
1274105488497,80.2622
1274105548497,80.3040
1274105608497,80.3398
1274105668497,80.0996
1274105728497,80.3437
1274105788497,80.5574
1274105848497,80.3842
1274105908497,80.2888
1274105968497,80.2988
1274106028497,80.3897
1274106088497,80.1787
1274106148497,80.3799
1274106208497,80.0905
1274106268497,80.2948
1274106328497,80.3650
1274106388497,80.2648
1274106448497,80.3594
1274106508497,80.2346
1274106568497,80.3135
1274106628497,80.1982
1274106688497,80.3470
1274106748497,80.1397
1274106808497,80.2994
1274106868497,80.3358
1274106928497,80.0006
1274106988497,80.1143
1274107048497,80.1462
1274107108497,80.2309
1274107168497,80.2634
1274107228497,80.3722
1274107288497,80.1782
1274107348497,80.0634
1274107408497,80.2107
1274107468497,80.0716
1274107528497,80.1067
1274107588497,80.1418
1274107648497,80.2024
1274107708497,80.3365
1274107768497,79.9374
1274107828497,80.1706
1274107888497,80.0942
1274107948497,80.0582
1274108008497,80.3990
1274108068497,80.2968
1274108128497,79.9880
1274108188497,80.1290
1274108248497,80.2116
1274108308497,80.2108
1274108368497,80.0772
1274108428505,80.3623
1274108488505,80.0625
1274108548505,80.5176
1274108608505,80.1453
1274108668505,80.1698
1274108728505,79.9753
1274108788505,80.0549
1274108848505,80.1674
1274108908505,80.0654
1274108968505,80.0744
1274109028505,80.1270
1274109088505,80.1951
1274109148505,80.3731
1274109208505,80.1676
1274109268505,80.1742
1274109328505,80.1675
1274109388505,80.4005
1274109448505,80.4412
1274109508505,80.3664
1274109568505,80.1520
1274109628505,80.2640
1274109688505,80.2343
1274109748505,80.1723
1274109808505,80.1832
1274109868505,80.2067
1274109928505,80.1666
1274109988505,80.1997
1274110048505,80.0493
1274110108505,80.2215
1274110168505,80.2525
1274110228505,80.0905
1274110288505,80.2306
1274110348505,80.3166
1274110408505,80.0607
1274110468505,80.2461
1274110528505,80.1074
1274110588505,80.1524
1274110648505,80.3305
1274110708505,80.1935
1274110768505,80.3894
1274110828505,80.4707
1274110888505,80.2314
1274110948505,80.3176
1274111008505,80.3091
1274111068505,80.2266
1274111128505,80.1990
1274111188505,80.4578
1274111248505,80.3581
1274111308505,80.3262
1274111368505,80.3964
1274111428505,80.3104
1274111488505,80.4777
1274111548505,80.2921
1274111608505,80.2174
1274111668505,80.1571
1274111728505,80.3683
1274111788505,80.3845
1274111848505,80.2226
1274111908505,80.3865
1274111968505,80.2433
1274112028514,80.3555
1274112088514,80.5508
1274112148514,80.5570
1274112208514,80.4636
1274112268514,80.2013
1274112328514,80.3338
1274112388514,80.2963
1274112448514,80.3200
1274112508514,80.3471
1274112568514,80.6434
1274112628514,80.3541
1274112688514,80.4763
1274112748514,80.3520
1274112808514,80.2476
1274112868514,80.3473
1274112928514,80.2416
1274112988514,80.2896
1274113048514,80.4612
1274113108514,80.2816
1274113168514,80.4324
1274113228514,80.2764
1274113288514,80.2056
1274113348514,80.1996
1274113408514,80.3474
1274113468514,80.2932
1274113528514,80.2398
1274113588514,80.3048
1274113648514,80.2730
1274113708514,80.1856
1274113768514,80.2108
1274113828514,80.2445
1274113888514,80.1433
1274113948514,80.1934
1274114008514,80.3770
1274114068514,80.2366
1274114128514,80.0941
1274114188514,80.2289
1274114248514,80.1663
1274114308514,80.1287
1274114368514,80.3116
1274114428514,80.0693
1274114488514,80.2439
1274114548514,80.2507
1274114608514,80.1496
1274114668514,80.2922
1274114728514,80.1100
1274114788514,80.1283
1274114848514,79.9726
1274114908514,80.2543
1274114968514,80.3712
1274115028514,80.2573
1274115088514,79.9851
1274115148514,80.1253
1274115208514,80.0660
1274115268514,80.0957
1274115328514,80.0722
1274115388514,80.2066
1274115448514,79.9367
1274115508514,80.1061
1274115568514,80.1289
1274115628522,79.9923
1274115688522,80.0856
1274115748522,80.2400
1274115808522,80.2105
1274115868522,80.0927
1274115928522,80.0474
1274115988522,80.3254
1274116048522,80.1154
1274116108522,80.1632
1274116168522,80.1041
1274116228522,80.1316
1274116288522,80.1044
1274116348522,80.0370
1274116408522,80.2266
1274116468522,80.0823
1274116528522,80.3140
1274116588522,80.2654
1274116648522,80.4046
1274116708522,80.1918
1274116768522,80.1565
1274116828522,80.2361
1274116888522,80.0109
1274116948522,80.1595
1274117008522,79.8734
1274117068522,80.2902
1274117128522,80.1862
1274117188522,80.2165
1274117248522,80.1045
1274117308522,79.9915
1274117368522,80.1544
1274117428522,79.9279
1274117488522,80.0670
1274117548522,79.9538
1274117608522,80.1106
1274117668522,80.2378
1274117728522,80.1237
1274117788522,80.0452
1274117848522,80.1553
1274117908522,79.9833
1274117968522,80.1748
1274118028522,80.1129
1274118088522,80.0021
1274118148522,80.2036
1274118208522,80.0666
1274118268522,80.1331
1274118328522,80.3709
1274118388522,80.3313
1274118448522,80.2211
1274118508522,80.3171
1274118568522,80.0457
1274118628522,80.2420
1274118688522,80.0913
1274118748522,80.1843
1274118808522,80.0394
1274118868522,80.1011
1274118928522,80.0618
1274118988522,80.0480
1274119048522,80.1280
1274119108522,80.0341
1274119168522,80.0563
1274119228531,80.0239
1274119288531,79.8921
1274119348531,80.0161
1274119408531,79.9133
1274119468531,79.9737
1274119528531,79.9694
1274119588531,79.8520
1274119648531,80.0462
1274119708531,80.1320
1274119768531,80.0877
1274119828531,79.9691
1274119888531,80.0041
1274119948531,79.9258
1274120008531,79.7525
1274120068531,79.8229
1274120128531,79.9554
1274120188531,79.9934
1274120248531,79.9233